Time,TemperatureF,DewpointF,PressureIn,WindDirection,WindDirectionDegrees,WindSpeedMPH,WindSpeedGustMPH,Humidity,HourlyPrecipIn,Conditions,Clouds,dailyrainin,SoftwareType,DateUTC
2013-03-01 00:02:00,36.0,34.0,-100.00,WNW,290,2.0,5.0,90,0.00,,,-99.99,,2013-03-01 05:02:00,
2013-03-01 00:11:00,36.0,34.0,-100.00,WNW,290,1.0,4.0,90,0.00,,,-99.99,,2013-03-01 05:11:00,
2013-03-01 00:22:00,36.0,34.0,-100.00,NW,305,1.0,3.0,90,0.00,,,-99.99,,2013-03-01 05:22:00,
2013-03-01 00:33:00,36.0,34.0,-100.00,NW,320,0.0,2.0,90,0.00,,,-99.99,,2013-03-01 05:33:00,
2013-03-01 00:42:00,36.0,34.0,-100.00,West,270,1.0,3.0,90,0.00,,,-99.99,,2013-03-01 05:42:00,
2013-03-01 00:52:00,36.0,34.0,-100.00,WNW,300,0.0,3.0,90,0.00,,,-99.99,,2013-03-01 05:52:00,
2013-03-01 01:02:00,36.0,34.0,-100.00,NW,305,0.0,4.0,90,0.00,,,-99.99,,2013-03-01 06:02:00,
2013-03-01 01:11:00,36.0,34.0,-100.00,West,275,1.0,3.0,90,0.00,,,-99.99,,2013-03-01 06:11:00,
2013-03-01 01:22:00,36.0,34.0,-100.00,NW,310,0.0,2.0,90,0.00,,,-99.99,,2013-03-01 06:22:00,
2013-03-01 01:32:00,36.0,34.0,-100.00,WNW,290,0.0,4.0,90,0.00,,,-99.99,,2013-03-01 06:32:00,
2013-03-01 01:42:00,36.0,34.0,-100.00,WNW,290,0.0,4.0,90,0.00,,,-99.99,,2013-03-01 06:42:00,
2013-03-01 01:52:00,36.0,33.0,-100.00,NW,305,0.0,2.0,89,0.00,,,-99.99,,2013-03-01 06:52:00,
2013-03-01 02:02:00,36.0,33.0,-100.00,NW,315,1.0,4.0,89,0.00,,,-99.99,,2013-03-01 07:02:00,
2013-03-01 02:12:00,36.0,33.0,-100.00,NW,315,1.0,4.0,89,0.00,,,-99.99,,2013-03-01 07:12:00,
2013-03-01 02:22:00,35.0,32.0,-100.00,NE,45,0.0,6.0,89,1.10,,,-99.99,,2013-03-01 07:22:00,
2013-03-01 02:32:00,35.0,32.0,-100.00,West,270,0.0,6.0,89,0.55,,,-99.99,,2013-03-01 07:32:00,
2013-03-01 02:42:00,35.0,32.0,-100.00,NW,305,0.0,2.0,90,0.00,,,-99.99,,2013-03-01 07:42:00,
2013-03-01 02:52:00,35.0,32.0,-100.00,WNW,300,0.0,1.0,90,0.00,,,-99.99,,2013-03-01 07:52:00,
2013-03-01 03:02:00,35.0,32.0,-100.00,NW,305,0.0,1.0,90,0.00,,,-99.99,,2013-03-01 08:02:00,
2013-03-01 03:12:00,35.0,32.0,-100.00,NW,305,0.0,1.0,90,0.00,,,-99.99,,2013-03-01 08:12:00,
2013-03-01 03:22:00,35.0,32.0,-100.00,WNW,300,0.0,1.0,90,0.00,,,-99.99,,2013-03-01 08:22:00,
2013-03-01 03:32:00,35.0,33.0,-100.00,NW,305,1.0,2.0,90,0.00,,,-99.99,,2013-03-01 08:32:00,
2013-03-01 03:42:00,35.0,32.0,-100.00,WNW,300,2.0,5.0,90,0.00,,,-99.99,,2013-03-01 08:42:00,
2013-03-01 03:52:00,35.0,32.0,-100.00,NW,310,2.0,4.0,91,0.00,,,-99.99,,2013-03-01 08:52:00,
2013-03-01 04:02:00,35.0,32.0,-100.00,NW,325,1.0,3.0,91,0.00,,,-99.99,,2013-03-01 09:02:00,
2013-03-01 04:12:00,35.0,33.0,-100.00,WNW,290,2.0,3.0,91,0.00,,,-99.99,,2013-03-01 09:12:00,
2013-03-01 04:22:00,35.0,33.0,-100.00,NW,305,1.0,3.0,91,0.00,,,-99.99,,2013-03-01 09:22:00,
2013-03-01 04:32:00,35.0,33.0,-100.00,NW,305,0.0,2.0,91,0.00,,,-99.99,,2013-03-01 09:32:00,
2013-03-01 04:42:00,35.0,33.0,-100.00,NW,320,1.0,2.0,91,0.00,,,-99.99,,2013-03-01 09:42:00,
2013-03-01 04:52:00,35.0,33.0,-100.00,NW,325,0.0,2.0,91,0.00,,,-99.99,,2013-03-01 09:52:00,
2013-03-01 05:02:00,35.0,32.0,-100.00,NNW,330,2.0,3.0,91,0.00,,,-99.99,,2013-03-01 10:02:00,
2013-03-01 05:11:00,35.0,32.0,-100.00,NNW,330,1.0,4.0,91,0.00,,,-99.99,,2013-03-01 10:11:00,
2013-03-01 05:22:00,34.0,32.0,-100.00,NW,310,0.0,3.0,91,0.00,,,-99.99,,2013-03-01 10:22:00,
2013-03-01 05:32:00,34.0,32.0,-100.00,NW,320,2.0,4.0,91,0.00,,,-99.99,,2013-03-01 10:32:00,
2013-03-01 05:42:00,34.0,32.0,-100.00,NW,315,1.0,3.0,91,0.00,,,-99.99,,2013-03-01 10:42:00,
2013-03-01 05:52:00,34.0,32.0,-100.00,NW,325,1.0,3.0,91,0.00,,,-99.99,,2013-03-01 10:52:00,
2013-03-01 06:02:00,34.0,32.0,-100.00,NNW,335,1.0,3.0,91,0.00,,,-99.99,,2013-03-01 11:02:00,
2013-03-01 06:11:00,34.0,32.0,-100.00,WSW,240,0.0,2.0,91,0.00,,,-99.99,,2013-03-01 11:11:00,
2013-03-01 06:22:00,34.0,32.0,-100.00,NW,325,1.0,3.0,91,0.00,,,-99.99,,2013-03-01 11:22:00,
2013-03-01 06:32:00,34.0,32.0,-100.00,NW,315,0.0,4.0,91,0.00,,,-99.99,,2013-03-01 11:32:00,
2013-03-01 06:42:00,34.0,32.0,-100.00,NW,315,1.0,2.0,91,0.00,,,-99.99,,2013-03-01 11:42:00,
2013-03-01 06:52:00,34.0,32.0,-100.00,NW,325,1.0,4.0,91,0.00,,,-99.99,,2013-03-01 11:52:00,
2013-03-01 07:02:00,34.0,32.0,-100.00,NW,310,1.0,6.0,91,0.00,,,-99.99,,2013-03-01 12:02:00,
2013-03-01 07:11:00,34.0,32.0,-100.00,NW,320,1.0,3.0,91,0.00,,,-99.99,,2013-03-01 12:11:00,
2013-03-01 07:21:00,34.0,32.0,-100.00,NW,320,1.0,4.0,91,0.00,,,-99.99,,2013-03-01 12:21:00,
2013-03-01 07:32:00,34.0,32.0,-100.00,NW,315,0.0,1.0,90,0.00,,,-99.99,,2013-03-01 12:32:00,
2013-03-01 07:42:00,34.0,32.0,-100.00,ESE,120,0.0,2.0,90,0.00,,,-99.99,,2013-03-01 12:42:00,
2013-03-01 07:52:00,34.0,32.0,-100.00,NW,315,1.0,3.0,90,0.00,,,-99.99,,2013-03-01 12:52:00,
2013-03-01 08:01:00,34.0,32.0,-100.00,NW,310,1.0,4.0,90,0.00,,,-99.99,,2013-03-01 13:01:00,
2013-03-01 08:11:00,35.0,32.0,-100.00,NW,305,1.0,2.0,90,0.00,,,-99.99,,2013-03-01 13:11:00,
2013-03-01 08:22:00,35.0,32.0,-100.00,WNW,295,1.0,4.0,90,0.00,,,-99.99,,2013-03-01 13:22:00,
2013-03-01 08:32:00,35.0,32.0,-100.00,NW,320,1.0,3.0,90,0.00,,,-99.99,,2013-03-01 13:32:00,
2013-03-01 08:42:00,35.0,32.0,-100.00,NW,305,1.0,2.0,89,0.00,,,-99.99,,2013-03-01 13:42:00,
2013-03-01 08:52:00,35.0,32.0,-100.00,NW,305,2.0,3.0,89,0.00,,,-99.99,,2013-03-01 13:52:00,
2013-03-01 09:02:00,35.0,32.0,-100.00,West,265,1.0,3.0,89,0.00,,,-99.99,,2013-03-01 14:02:00,
2013-03-01 09:11:00,35.0,32.0,-100.00,NW,315,1.0,3.0,88,0.00,,,-99.99,,2013-03-01 14:11:00,
2013-03-01 09:21:00,36.0,32.0,-100.00,NW,310,2.0,5.0,87,0.00,,,-99.99,,2013-03-01 14:21:00,
2013-03-01 09:32:00,35.0,32.0,-100.00,NW,310,2.0,6.0,87,0.00,,,-99.99,,2013-03-01 14:32:00,
2013-03-01 09:42:00,36.0,32.0,-100.00,WNW,300,1.0,3.0,86,0.00,,,-99.99,,2013-03-01 14:42:00,
2013-03-01 09:52:00,36.0,32.0,-100.00,West,275,0.0,6.0,85,0.00,,,-99.99,,2013-03-01 14:52:00,
2013-03-01 10:02:00,36.0,32.0,-100.00,NW,320,0.0,4.0,84,0.00,,,-99.99,,2013-03-01 15:02:00,
2013-03-01 10:11:00,36.0,31.0,-100.00,West,280,1.0,5.0,82,0.00,,,-99.99,,2013-03-01 15:11:00,
2013-03-01 10:21:00,37.0,32.0,-100.00,NW,320,0.0,6.0,81,0.00,,,-99.99,,2013-03-01 15:21:00,
2013-03-01 10:32:00,37.0,31.0,-100.00,WNW,300,4.0,6.0,80,0.00,,,-99.99,,2013-03-01 15:32:00,
2013-03-01 10:42:00,37.0,31.0,-100.00,West,280,0.0,5.0,78,0.00,,,-99.99,,2013-03-01 15:42:00,
2013-03-01 10:52:00,38.0,31.0,-100.00,NNW,330,0.0,3.0,78,0.00,,,-99.99,,2013-03-01 15:52:00,
2013-03-01 11:01:00,37.0,31.0,-100.00,South,170,0.0,1.0,76,0.00,,,-99.99,,2013-03-01 16:01:00,
2013-03-01 11:11:00,37.0,30.0,-100.00,East,100,0.0,3.0,76,0.00,,,-99.99,,2013-03-01 16:11:00,
2013-03-01 11:21:00,37.0,30.0,-100.00,NW,315,2.0,4.0,74,0.00,,,-99.99,,2013-03-01 16:21:00,
2013-03-01 11:32:00,38.0,30.0,-100.00,WSW,250,1.0,4.0,74,0.00,,,-99.99,,2013-03-01 16:32:00,
2013-03-01 11:42:00,37.0,29.0,-100.00,SSW,195,1.0,3.0,72,0.00,,,-99.99,,2013-03-01 16:42:00,
2013-03-01 11:51:00,38.0,30.0,-100.00,ENE,60,0.0,4.0,73,0.00,,,-99.99,,2013-03-01 16:51:00,
2013-03-01 12:01:00,38.0,30.0,-100.00,ESE,105,0.0,3.0,72,0.00,,,-99.99,,2013-03-01 17:01:00,
2013-03-01 12:11:00,38.0,29.0,-100.00,West,280,2.0,5.0,71,0.00,,,-99.99,,2013-03-01 17:11:00,
2013-03-01 12:32:00,38.0,30.0,-100.00,ENE,75,1.0,4.0,70,0.00,,,-99.99,,2013-03-01 17:32:00,
2013-03-01 12:41:00,38.0,29.0,-100.00,NW,305,6.0,9.0,68,0.00,,,-99.99,,2013-03-01 17:41:00,
2013-03-01 12:52:00,39.0,30.0,-100.00,West,280,0.0,4.0,69,0.00,,,-99.99,,2013-03-01 17:52:00,
2013-03-01 13:01:00,39.0,29.0,-100.00,ENE,60,2.0,7.0,67,0.00,,,-99.99,,2013-03-01 18:01:00,
2013-03-01 13:12:00,39.0,28.0,-100.00,WNW,290,5.0,9.0,65,0.00,,,-99.99,,2013-03-01 18:12:00,
2013-03-01 13:22:00,39.0,29.0,-100.00,SSE,165,0.0,7.0,67,0.00,,,-99.99,,2013-03-01 18:22:00,
2013-03-01 13:32:00,40.0,29.0,-100.00,SSE,155,0.0,6.0,65,0.00,,,-99.99,,2013-03-01 18:32:00,
2013-03-01 13:42:00,40.0,29.0,-100.00,North,0,1.0,4.0,64,0.00,,,-99.99,,2013-03-01 18:42:00,
2013-03-01 13:52:00,40.0,29.0,-100.00,NE,45,1.0,6.0,64,0.00,,,-99.99,,2013-03-01 18:52:00,
2013-03-01 14:01:00,40.0,28.0,-100.00,WNW,285,3.0,7.0,63,0.00,,,-99.99,,2013-03-01 19:01:00,
2013-03-01 14:11:00,40.0,28.0,-100.00,NW,310,1.0,6.0,62,0.00,,,-99.99,,2013-03-01 19:11:00,
2013-03-01 14:21:00,40.0,29.0,-100.00,NW,325,1.0,6.0,63,0.00,,,-99.99,,2013-03-01 19:21:00,
2013-03-01 14:32:00,40.0,28.0,-100.00,WNW,285,1.0,6.0,62,0.00,,,-99.99,,2013-03-01 19:32:00,
2013-03-01 14:42:00,40.0,28.0,-100.00,WSW,245,1.0,6.0,62,0.00,,,-99.99,,2013-03-01 19:42:00,
2013-03-01 14:51:00,40.0,27.0,-100.00,NW,305,6.0,9.0,59,0.00,,,-99.99,,2013-03-01 19:51:00,
2013-03-01 15:01:00,40.0,28.0,-100.00,WNW,300,4.0,8.0,61,0.00,,,-99.99,,2013-03-01 20:01:00,
2013-03-01 15:11:00,40.0,28.0,-100.00,NE,35,1.0,7.0,61,0.00,,,-99.99,,2013-03-01 20:11:00,
2013-03-01 15:21:00,40.0,28.0,-100.00,WSW,250,3.0,6.0,60,0.00,,,-99.99,,2013-03-01 20:21:00,
2013-03-01 15:32:00,40.0,27.0,-100.00,East,85,0.0,3.0,59,0.00,,,-99.99,,2013-03-01 20:32:00,
2013-03-01 15:42:00,40.0,28.0,-100.00,SSE,165,1.0,6.0,60,0.00,,,-99.99,,2013-03-01 20:42:00,
2013-03-01 15:52:00,40.0,28.0,-100.00,South,185,0.0,3.0,60,0.00,,,-99.99,,2013-03-01 20:52:00,
2013-03-01 16:02:00,40.0,28.0,-100.00,NNW,330,1.0,6.0,61,0.00,,,-99.99,,2013-03-01 21:02:00,
2013-03-01 16:11:00,40.0,28.0,-100.00,NW,325,2.0,6.0,60,0.00,,,-99.99,,2013-03-01 21:11:00,
2013-03-01 16:21:00,39.0,27.0,-100.00,WNW,295,2.0,6.0,60,0.00,,,-99.99,,2013-03-01 21:21:00,
2013-03-01 16:32:00,40.0,27.0,-100.00,NW,315,1.0,6.0,61,0.00,,,-99.99,,2013-03-01 21:32:00,
2013-03-01 16:42:00,40.0,29.0,-100.00,ESE,115,2.0,4.0,64,0.00,,,-99.99,,2013-03-01 21:42:00,
2013-03-01 16:52:00,39.0,27.0,-100.00,ENE,60,1.0,4.0,61,0.00,,,-99.99,,2013-03-01 21:52:00,
2013-03-01 17:01:00,39.0,28.0,-100.00,SSE,155,0.0,3.0,62,0.00,,,-99.99,,2013-03-01 22:01:00,
2013-03-01 17:11:00,39.0,28.0,-100.00,North,5,0.0,4.0,64,0.00,,,-99.99,,2013-03-01 22:11:00,
2013-03-01 17:21:00,39.0,28.0,-100.00,NNW,345,0.0,2.0,63,0.00,,,-99.99,,2013-03-01 22:21:00,
2013-03-01 17:32:00,38.0,27.0,-100.00,SE,130,0.0,1.0,64,0.00,,,-99.99,,2013-03-01 22:32:00,
2013-03-01 17:42:00,38.0,28.0,-100.00,East,80,0.0,3.0,65,0.00,,,-99.99,,2013-03-01 22:42:00,
2013-03-01 17:51:00,38.0,28.0,-100.00,NE,35,0.0,2.0,65,0.00,,,-99.99,,2013-03-01 22:51:00,
2013-03-01 18:01:00,38.0,27.0,-100.00,West,270,1.0,4.0,64,0.00,,,-99.99,,2013-03-01 23:01:00,
2013-03-01 18:11:00,38.0,27.0,-100.00,NW,305,1.0,3.0,65,0.00,,,-99.99,,2013-03-01 23:11:00,
2013-03-01 18:21:00,38.0,28.0,-100.00,WNW,290,1.0,5.0,66,0.00,,,-99.99,,2013-03-01 23:21:00,
2013-03-01 18:32:00,37.0,27.0,-100.00,West,280,0.0,4.0,65,0.00,,,-99.99,,2013-03-01 23:32:00,
2013-03-01 18:41:00,37.0,27.0,-100.00,South,180,0.0,6.0,65,0.00,,,-99.99,,2013-03-01 23:41:00,
2013-03-01 18:52:00,37.0,27.0,-100.00,NW,320,2.0,4.0,65,0.00,,,-99.99,,2013-03-01 23:52:00,
2013-03-01 19:02:00,37.0,26.0,-100.00,South,190,0.0,6.0,65,0.00,,,-99.99,,2013-03-02 00:02:00,
2013-03-01 19:12:00,37.0,26.0,-100.00,South,185,1.0,4.0,64,0.00,,,-99.99,,2013-03-02 00:12:00,
2013-03-01 19:22:00,37.0,26.0,-100.00,North,5,0.0,5.0,65,0.00,,,-99.99,,2013-03-02 00:22:00,
2013-03-01 19:32:00,37.0,26.0,-100.00,WNW,290,1.0,3.0,65,0.00,,,-99.99,,2013-03-02 00:32:00,
2013-03-01 19:42:00,37.0,26.0,-100.00,ESE,110,0.0,3.0,65,0.00,,,-99.99,,2013-03-02 00:42:00,
2013-03-01 19:52:00,37.0,26.0,-100.00,East,80,0.0,2.0,66,0.00,,,-99.99,,2013-03-02 00:52:00,
2013-03-01 20:01:00,36.0,26.0,-100.00,WNW,300,0.0,5.0,65,0.00,,,-99.99,,2013-03-02 01:01:00,
2013-03-01 20:11:00,36.0,26.0,-100.00,NE,55,0.0,2.0,67,0.00,,,-99.99,,2013-03-02 01:11:00,
2013-03-01 20:21:00,36.0,26.0,-100.00,North,0,0.0,3.0,67,0.00,,,-99.99,,2013-03-02 01:21:00,
2013-03-01 20:32:00,36.0,26.0,-100.00,NNW,345,0.0,2.0,67,0.00,,,-99.99,,2013-03-02 01:32:00,
2013-03-01 20:41:00,36.0,26.0,-100.00,NW,320,0.0,2.0,68,0.00,,,-99.99,,2013-03-02 01:41:00,
2013-03-01 20:51:00,36.0,26.0,-100.00,NW,305,1.0,2.0,68,0.00,,,-99.99,,2013-03-02 01:51:00,
2013-03-01 21:01:00,35.0,26.0,-100.00,East,90,0.0,2.0,68,0.00,,,-99.99,,2013-03-02 02:01:00,
2013-03-01 21:11:00,35.0,26.0,-100.00,NW,305,2.0,5.0,68,0.00,,,-99.99,,2013-03-02 02:11:00,
2013-03-01 21:22:00,35.0,26.0,-100.00,West,265,1.0,5.0,67,0.00,,,-99.99,,2013-03-02 02:22:00,
2013-03-01 21:32:00,35.0,26.0,-100.00,ENE,70,0.0,2.0,67,0.00,,,-99.99,,2013-03-02 02:32:00,
2013-03-01 21:42:00,35.0,26.0,-100.00,NW,305,1.0,3.0,68,0.00,,,-99.99,,2013-03-02 02:42:00,
2013-03-01 21:52:00,35.0,26.0,-100.00,SW,225,0.0,2.0,68,0.00,,,-99.99,,2013-03-02 02:52:00,
2013-03-01 22:02:00,34.0,25.0,-100.00,SSW,195,0.0,5.0,69,0.00,,,-99.99,,2013-03-02 03:02:00,
2013-03-01 22:11:00,34.0,25.0,-100.00,SW,220,0.0,3.0,69,0.00,,,-99.99,,2013-03-02 03:11:00,
2013-03-01 22:21:00,34.0,25.0,-100.00,NW,320,0.0,0.0,69,0.00,,,-99.99,,2013-03-02 03:21:00,
2013-03-01 22:32:00,33.0,25.0,-100.00,NW,305,0.0,2.0,70,0.00,,,-99.99,,2013-03-02 03:32:00,
2013-03-01 22:42:00,33.0,25.0,-100.00,NNE,30,0.0,0.0,70,0.00,,,-99.99,,2013-03-02 03:42:00,
2013-03-01 22:52:00,33.0,25.0,-100.00,NE,40,0.0,1.0,71,0.00,,,-99.99,,2013-03-02 03:52:00,
2013-03-01 23:02:00,33.0,24.0,-100.00,NNW,345,1.0,3.0,71,0.00,,,-99.99,,2013-03-02 04:02:00,
2013-03-01 23:11:00,33.0,25.0,-100.00,SE,145,0.0,2.0,71,0.00,,,-99.99,,2013-03-02 04:11:00,
2013-03-01 23:21:00,32.0,24.0,-100.00,NW,320,0.0,3.0,71,0.00,,,-99.99,,2013-03-02 04:21:00,
2013-03-01 23:32:00,32.0,24.0,-100.00,West,280,0.0,0.0,72,0.00,,,-99.99,,2013-03-02 04:32:00,
2013-03-01 23:42:00,32.0,24.0,-100.00,WNW,295,0.0,1.0,71,0.00,,,-99.99,,2013-03-02 04:42:00,
2013-03-01 23:52:00,32.0,24.0,-100.00,South,170,0.0,2.0,71,0.00,,,-99.99,,2013-03-02 04:52:00,